This demonstration page uses our WeatherBlox Daily Observations layout. Learn more.

Left ArrowRight Arrow

44.89941, -97.11507

Hourly Observations for May 30, 2019

Temp ( °F °C ) Dew Point ( °F °C ) Humidity (%) Winds ( mph kmh ) Pressure ( in mb ) Visibility ( mi km ) Precip ( " mm )
12:53 am 00:53 Clear 53 11.7 46 7.8 77 77 Calm 29.76 1008 10 16 0.00 0.00
1:53 am 01:53 Clear 55 12.8 47 8.3 74 74 Calm 29.75 1007 10 16 0.00 0.00
2:53 am 02:53 Clear 53 11.7 47 8.3 80 80 Calm 29.74 1007 10 16 0.00 0.00
3:53 am 03:53 Clear 51 10.6 47 8.3 86 86 Calm 29.75 1007 10 16 0.00 0.00
4:53 am 04:53 Clear 52 11.1 48 8.9 86 86 Calm 29.75 1007 10 16 0.00 0.00
5:53 am 05:53 Sunny 51 10.6 48 8.9 89 89 Calm 29.75 1008 10 16 0.00 0.00
6:53 am 06:53 Sunny with Mist and Fog 51 10.6 48 8.9 89 89 Calm 29.78 1008 6 10 0.00 0.00
7:53 am 07:53 Sunny 57 13.9 53 11.7 87 87 Calm 29.78 1009 8 13 0.00 0.00
8:53 am 08:53 Sunny 65 18.3 56 13.3 73 73 Calm 29.80 1009 10 16 0.00 0.00
9:53 am 09:53 Sunny 70 21.1 55 12.8 59 59 NNW 3 6 29.81 1009 10 16 0.00 0.00
10:53 am 10:53 Sunny 74 23.3 52 11.1 46 46 WNW 6 9 29.81 1009 9 14 0.00 0.00
11:53 am 11:53 Sunny 77 25 49 9.4 37 37 Calm 29.81 1010 10 16 0.00 0.00
12:53 pm 12:53 Sunny 79 26.1 49 9.4 35 35 SW 5 7 29.81 1010 10 16 0.00 0.00
1:53 pm 13:53 Sunny 81 27.2 49 9.4 33 33 WSW 6 9 29.80 1009 10 16 0.00 0.00
2:53 pm 14:53 Sunny 82 27.8 49 9.4 32 32 W 6 9 29.80 1009 10 16 0.00 0.00
3:53 pm 15:53 Sunny 83 28.3 50 10 32 32 WNW 8 13 29.80 1009 9 14 0.00 0.00
4:53 pm 16:53 Sunny 83 28.3 51 10.6 33 33 WNW 9 15 29.79 1009 10 16 0.00 0.00
5:53 pm 17:53 Sunny 82 27.8 50 10 33 33 WNW 10 17 29.79 1009 10 16 0.00 0.00
6:53 pm 18:53 Sunny 81 27.2 50 10 34 34 WNW 7 11 29.79 1009 10 16 0.00 0.00
7:53 pm 19:53 Sunny 76 24.4 54 12.2 47 47 W 13 20 29.80 1009 10 16 0.00 0.00
8:53 pm 20:53 Sunny 73 22.8 51 10.6 46 46 W 8 13 29.80 1009 10 16 0.00 0.00
9:53 pm 21:53 Clear 67 19.4 52 11.1 59 59 W 9 15 29.81 1010 10 16 0.00 0.00
10:53 pm 22:53 Clear 69 20.6 53 11.7 57 57 W 9 15 29.82 1010 10 16 0.00 0.00
11:53 pm 23:53 Clear 67 19.4 54 12.2 63 63 W 9 15 29.82 1010 10 16 0.00 0.00

Powered by AerisWeather